| time (UTC) | temp F | wind direction | speed MPH | gust MPH | rain 1hr in | rain 24hr in | rain mn in | humidity % | barometer mb |
| 20260509231530 | 90 | 131 | 2.0 | 8.0 | 0.00 | 0.00 | 0.00 | 38 | 1007.0 |
| 20260509230029 | 90 | 94 | 3.0 | 11.0 | 0.00 | 0.00 | 0.00 | 35 | 1007.0 |
| 20260509224528 | 90 | 126 | 2.0 | 9.0 | 0.00 | 0.00 | 0.00 | 32 | 1007.1 |
| 20260509223029 | 90 | 188 | 2.0 | 8.0 | 0.00 | 0.00 | 0.00 | 37 | 1007.2 |
| 20260509221529 | 90 | 124 | 2.0 | 11.0 | 0.00 | 0.00 | 0.00 | 41 | 1007.4 |
| 20260509220023 | 91 | 122 | 4.0 | 11.0 | 0.00 | 0.00 | 0.00 | 39 | 1007.5 |
| 20260509214521 | 92 | 106 | 5.0 | 13.0 | 0.00 | 0.00 | 0.00 | 29 | 1007.7 |
| 20260509213019 | 93 | 131 | 2.0 | 12.0 | 0.00 | 0.00 | 0.00 | 25 | 1007.8 |
| 20260509211539 | 93 | 172 | 5.0 | 13.0 | 0.00 | 0.00 | 0.00 | 21 | 1007.9 |
| 20260509210016 | 93 | 151 | 3.0 | 14.0 | 0.00 | 0.00 | 0.00 | 23 | 1008.2 |
| 20260509204513 | 93 | 169 | 5.0 | 12.0 | 0.00 | 0.00 | 0.00 | 21 | 1008.4 |
| 20260509203024 | 93 | 169 | 3.0 | 12.0 | 0.00 | 0.00 | 0.00 | 21 | 1008.5 |
| 20260509201508 | 92 | 148 | 5.0 | 13.0 | 0.00 | 0.00 | 0.00 | 22 | 1008.8 |
| 20260509200008 | 92 | 202 | 8.0 | 17.0 | 0.00 | 0.00 | 0.00 | 20 | 1009.1 |
| 20260509194507 | 92 | 180 | 4.0 | 15.0 | 0.00 | 0.00 | 0.00 | 23 | 1009.3 |
| 20260509193006 | 92 | 156 | 4.0 | 13.0 | 0.00 | 0.00 | 0.00 | 23 | 1009.4 |
| 20260509191505 | 92 | 113 | 2.0 | 12.0 | 0.00 | 0.00 | 0.00 | 25 | 1009.3 |
| 20260509190006 | 91 | 184 | 5.0 | 14.0 | 0.00 | 0.00 | 0.00 | 22 | 1009.4 |
| 20260509184503 | 92 | 113 | 6.0 | 16.0 | 0.00 | 0.00 | 0.00 | 23 | 1009.4 |
| 20260509183003 | 91 | 154 | 3.0 | 13.0 | 0.00 | 0.00 | 0.00 | 25 | 1009.6 |
| 20260509181610 | 91 | 173 | 6.0 | 12.0 | 0.00 | 0.00 | 0.00 | 27 | 1009.7 |
| 20260509180059 | 91 | 146 | 5.0 | 8.0 | 0.00 | 0.00 | 0.00 | 26 | 1009.6 |
| 20260509174555 | 90 | 138 | 4.0 | 11.0 | 0.00 | 0.00 | 0.00 | 29 | 1009.8 |
| 20260509173057 | 88 | 129 | 3.0 | 12.0 | 0.00 | 0.00 | 0.00 | 37 | 1009.8 |
| 20260509171554 | 88 | 113 | 3.0 | 9.0 | 0.00 | 0.00 | 0.00 | 43 | 1010.0 |
| 20260509170049 | 88 | 155 | 3.0 | 9.0 | 0.00 | 0.00 | 0.00 | 43 | 1010.1 |
| 20260509164546 | 88 | 135 | 3.0 | 8.0 | 0.00 | 0.00 | 0.00 | 44 | 1010.2 |
| 20260509163056 | 87 | 151 | 3.0 | 9.0 | 0.00 | 0.00 | 0.00 | 41 | 1010.2 |
| 20260509161544 | 87 | 177 | 2.0 | 8.0 | 0.00 | 0.00 | 0.00 | 37 | 1010.2 |
| 20260509160041 | 86 | 136 | 0.0 | 3.0 | 0.00 | 0.00 | 0.00 | 43 | 1010.1 |
| 20260509154537 | 82 | 330 | 0.0 | 2.0 | 0.00 | 0.00 | 0.00 | 44 | 1010.2 |
| 20260509153032 | 78 | 329 | 0.0 | 2.0 | 0.00 | 0.00 | 0.00 | 49 | 1010.3 |
| 20260509151528 | 76 | 329 | 0.0 | 1.0 | 0.00 | 0.00 | 0.00 | 50 | 1010.4 |
| 20260509150023 | 73 | 328 | 0.0 | 2.0 | 0.00 | 0.00 | 0.00 | 56 | 1010.5 |
| 20260509144519 | 70 | 328 | 0.0 | 1.0 | 0.00 | 0.00 | 0.00 | 57 | 1010.6 |
| 20260509143014 | 68 | 328 | 0.0 | 2.0 | 0.00 | 0.00 | 0.00 | 56 | 1010.6 |
| 20260509141517 | 67 | 330 | 0.0 | 3.0 | 0.00 | 0.00 | 0.00 | 59 | 1010.6 |
| 20260509140013 | 65 | 336 | 0.0 | 5.0 | 0.00 | 0.00 | 0.00 | 62 | 1010.5 |
| 20260509134511 | 63 | 311 | 0.0 | 2.0 | 0.00 | 0.00 | 0.00 | 66 | 1010.4 |
| 20260509133009 | 63 | 308 | 0.0 | 1.0 | 0.00 | 0.00 | 0.00 | 67 | 1010.2 |
| 20260509131512 | 63 | 308 | 0.0 | 4.0 | 0.00 | 0.00 | 0.00 | 61 | 1010.0 |
| 20260509130013 | 63 | 312 | 2.0 | 5.0 | 0.00 | 0.00 | 0.00 | 61 | 1010.0 |
| 20260509124507 | 62 | 321 | 1.0 | 5.0 | 0.00 | 0.00 | 0.00 | 61 | 1009.8 |
| 20260509123007 | 63 | 309 | 1.0 | 5.0 | 0.00 | 0.00 | 0.00 | 60 | 1009.6 |
| 20260509121509 | 62 | 295 | 2.0 | 5.0 | 0.00 | 0.00 | 0.00 | 60 | 1009.4 |
| 20260509120013 | 61 | 314 | 1.0 | 4.0 | 0.00 | 0.00 | 0.00 | 64 | 1009.2 |
| 20260509114503 | 61 | 314 | 0.0 | 2.0 | 0.00 | 0.00 | 0.00 | 64 | 1009.1 |
| 20260509113002 | 62 | 314 | 0.0 | 3.0 | 0.00 | 0.00 | 0.00 | 65 | 1009.1 |
| 20260509111600 | 62 | 314 | 0.0 | 3.0 | 0.00 | 0.00 | 0.00 | 66 | 1009.0 |
| 20260509110100 | 63 | 314 | 0.0 | 3.0 | 0.00 | 0.00 | 0.00 | 64 | 1008.8 |
| 20260509104602 | 63 | 315 | 1.0 | 3.0 | 0.00 | 0.00 | 0.00 | 65 | 1008.8 |
| 20260509103054 | 64 | 315 | 0.0 | 3.0 | 0.00 | 0.00 | 0.00 | 63 | 1008.8 |
| 20260509101555 | 64 | 315 | 0.0 | 2.0 | 0.00 | 0.00 | 0.00 | 63 | 1008.8 |
| 20260509094549 | 65 | 315 | 0.0 | 2.0 | 0.00 | 0.00 | 0.00 | 61 | 1008.9 |
| 20260509093049 | 65 | 315 | 1.0 | 5.0 | 0.00 | 0.00 | 0.00 | 60 | 1009.0 |
| 20260509091550 | 65 | 313 | 2.0 | 5.0 | 0.00 | 0.00 | 0.00 | 59 | 1009.0 |
| 20260509090044 | 65 | 319 | 0.0 | 5.0 | 0.00 | 0.00 | 0.00 | 59 | 1009.2 |
| 20260509084546 | 67 | 319 | 1.0 | 4.0 | 0.00 | 0.00 | 0.00 | 60 | 1009.3 |
| 20260509083039 | 68 | 316 | 0.0 | 4.0 | 0.00 | 0.00 | 0.00 | 59 | 1009.4 |
| 20260509081538 | 68 | 311 | 1.0 | 4.0 | 0.00 | 0.00 | 0.00 | 58 | 1009.4 |
| 20260509080053 | 68 | 319 | 2.0 | 5.0 | 0.00 | 0.00 | 0.00 | 59 | 1009.5 |
| 20260509074534 | 68 | 319 | 1.0 | 5.0 | 0.00 | 0.00 | 0.00 | 60 | 1009.8 |
| 20260509073058 | 67 | 331 | 1.0 | 3.0 | 0.00 | 0.00 | 0.00 | 62 | 1009.8 |
| 20260509071528 | 67 | 16 | 0.0 | 2.0 | 0.00 | 0.00 | 0.00 | 64 | 1009.9 |
| 20260509070027 | 67 | 16 | 0.0 | 2.0 | 0.00 | 0.00 | 0.00 | 64 | 1010.0 |
| 20260509064526 | 67 | 16 | 0.0 | 3.0 | 0.00 | 0.00 | 0.00 | 64 | 1010.1 |
| 20260509063029 | 68 | 16 | 0.0 | 1.0 | 0.00 | 0.00 | 0.00 | 64 | 1010.2 |
| 20260509061525 | 68 | 16 | 0.0 | 2.0 | 0.00 | 0.00 | 0.00 | 65 | 1010.2 |
| 20260509060025 | 68 | 16 | 0.0 | 4.0 | 0.00 | 0.00 | 0.00 | 66 | 1010.1 |
| 20260509054531 | 68 | 14 | 0.0 | 1.0 | 0.00 | 0.00 | 0.00 | 65 | 1010.2 |
| 20260509053024 | 68 | 14 | 0.0 | 3.0 | 0.00 | 0.00 | 0.00 | 65 | 1010.2 |
| 20260509051524 | 68 | 101 | 0.0 | 2.0 | 0.00 | 0.00 | 0.00 | 65 | 1010.1 |
| 20260509050033 | 69 | 113 | 0.0 | 1.0 | 0.00 | 0.00 | 0.00 | 66 | 1010.2 |
| 20260509044522 | 69 | 113 | 0.0 | 1.0 | 0.00 | 0.00 | 0.00 | 65 | 1010.0 |
| 20260509043037 | 70 | 123 | 0.0 | 1.0 | 0.00 | 0.00 | 0.00 | 66 | 1010.0 |
| 20260509041521 | 71 | 123 | 0.0 | 2.0 | 0.00 | 0.00 | 0.00 | 65 | 1009.8 |
| 20260509040021 | 72 | 127 | 0.0 | 0.0 | 0.00 | 0.00 | 0.00 | 64 | 1009.6 |
| 20260509034520 | 74 | 127 | 0.0 | 0.0 | 0.00 | 0.00 | 0.00 | 64 | 1009.6 |
| 20260509033022 | 74 | 127 | 0.0 | 0.0 | 0.00 | 0.00 | 0.00 | 62 | 1009.4 |
| 20260509031521 | 75 | 127 | 0.0 | 3.0 | 0.00 | 0.00 | 0.00 | 59 | 1009.3 |
| 20260509030022 | 75 | 127 | 0.0 | 2.0 | 0.00 | 0.00 | 0.00 | 58 | 1009.1 |
| 20260509024518 | 76 | 127 | 0.0 | 2.0 | 0.00 | 0.00 | 0.00 | 56 | 1009.0 |
| 20260509023023 | 76 | 132 | 1.0 | 4.0 | 0.00 | 0.00 | 0.00 | 54 | 1009.0 |
| 20260509021522 | 77 | 135 | 2.0 | 7.0 | 0.00 | 0.00 | 0.00 | 51 | 1008.8 |
| 20260509020018 | 78 | 96 | 2.0 | 5.0 | 0.00 | 0.00 | 0.00 | 50 | 1008.9 |
| 20260509014517 | 79 | 116 | 1.0 | 5.0 | 0.00 | 0.00 | 0.00 | 49 | 1008.8 |
| 20260509013038 | 80 | 116 | 3.0 | 8.0 | 0.00 | 0.00 | 0.00 | 49 | 1008.8 |
| 20260509011516 | 80 | 175 | 2.0 | 7.0 | 0.00 | 0.00 | 0.00 | 47 | 1008.8 |
| 20260509010023 | 81 | 142 | 3.0 | 7.0 | 0.00 | 0.00 | 0.00 | 46 | 1008.9 |
| 20260509004533 | 81 | 160 | 4.0 | 9.0 | 0.00 | 0.00 | 0.00 | 48 | 1008.8 |
| 20260509003014 | 82 | 192 | 5.0 | 12.0 | 0.00 | 0.00 | 0.00 | 48 | 1008.8 |
| 20260509001514 | 83 | 161 | 4.0 | 9.0 | 0.00 | 0.00 | 0.00 | 47 | 1008.8 |
| 20260509000013 | 83 | 137 | 4.0 | 9.0 | 0.00 | 0.00 | 0.00 | 47 | 1008.7 |
| 20260508234512 | 83 | 129 | 4.0 | 9.0 | 0.00 | 0.00 | 0.00 | 49 | 1008.8 |
| 20260508233011 | 84 | 165 | 3.0 | 10.0 | 0.00 | 0.00 | 0.00 | 48 | 1008.9 |